User: anonymous   Login
Location: Unspecified
(0.0000°N, 0.0000°E)
Time: 20:44:48
(UTC+00:00)
Language:

TBA - TO BE ASSIGNED - Orbit

View from above orbital plane
View from above orbital plane
View from above satellite
View from above satellite

Ground track
Ground track

The orbit is defined by the following mean orbital elements,

1 67862U          26145.57189019 +.00000000 +00000-0 +61720-3 0 00009
2 67862  53.1582 207.3533 0000970  57.5122 302.5972 15.30208623    04
Epoch (UTC): 25 May 2026 13:43:31
Eccentricity: 0.0000970
inclination: 53.1582°
perigee height: 475 km
apogee height: 476 km
right ascension of ascending node: 207.3533°
argument of perigee: 57.5122°
revolutions per day: 15.30208623
mean anomaly at epoch: 302.5972°

The dashed part of the orbit path shows where the satellite is in the earth's shadow,  

DLR